Location: Strawberry
(45.6646°N, 111.9596°W)
Time: 21:26:53
(UTC+00:00)

Explorer 11/Cluster Stage 4 - Pass Details

Date: 09 October 2022
Orbit: 466 x 1248 km, 28.8° (Epoch: 28 November)

Event Time Altitude Azimuth Distance (km) Brightness Sun altitude
Rises 15:55:35 0° 216° (SW) 3,923 10.2 21.6°
Reaches altitude 10° 15:59:29 10° 197° (SSW) 3,077 9.9 22.1°
Maximum altitude 16:03:58 16° 161° (SSE) 2,704 10.5 22.7°
Drops below altitude 10° 16:08:36 10° 126° (SE) 3,209 11.8 23.4°
Sets 16:12:48 0° 108° (ESE) 4,173 11.4 24.0°
